Location: Newark
(47.9161°N, 122.3031°W)
Time: 01:39:44
(UTC+00:00)

N. Korean satellite - Visible Passes

Search period start: 12 November 2019 00:00
Search period end: 22 November 2019 00:00
Orbit: 456 x 506 km, 97.2° (Epoch: 10 November)

Date Brightness Start Highest point End Pass type
(mag) Time Alt. Az. Time Alt. Az. Time Alt. Az.
12 Nov 10.3 02:31:17 10° WSW 02:32:15 11° W 02:33:14 10° WNW visible
12 Nov 7.7 13:51:06 10° NNE 13:54:45 50° E 13:58:22 10° S visible
13 Nov 9.5 02:03:52 10° SW 02:06:37 20° W 02:09:26 10° NW visible
13 Nov 9.1 13:26:05 10° NE 13:29:16 26° E 13:32:25 10° SSE visible
14 Nov 8.2 01:37:42 10° SSW 01:41:06 39° W 01:44:34 10° NNW visible
14 Nov 10.0 13:01:38 10° NE 13:03:42 14° E 13:05:43 10° ESE visible
14 Nov 6.8 14:33:45 10° N 14:37:22 49° WNW 14:40:57 10° SSW visible
15 Nov 6.7 01:12:04 10° S 01:15:40 81° WSW 01:19:22 10° NNW visible
15 Nov 6.7 14:08:17 10° NNE 14:12:02 82° ESE 14:15:44 10° S visible
16 Nov 10.0 02:22:10 10° WSW 02:24:02 13° W 02:25:56 10° WNW visible
16 Nov 8.1 13:43:04 10° NNE 13:46:37 40° E 13:50:06 10° S visible
17 Nov 9.1 01:55:23 10° SSW 01:58:26 25° W 02:01:32 10° NW visible
17 Nov 9.4 13:18:10 10° NE 13:21:05 21° E 13:23:58 10° SE visible
18 Nov 7.7 01:29:24 10° S 01:32:56 49° W 01:36:32 10° NNW visible
18 Nov 10.2 12:54:09 10° ENE 12:55:27 11° E 12:56:46 10° ESE visible
18 Nov 6.6 14:25:34 10° N 14:29:15 61° WNW 14:32:53 10° SSW visible
19 Nov 6.6 01:03:52 10° SSE 01:07:31 82° ENE 01:11:14 10° N visible
19 Nov 7.1 14:00:10 10° NNE 14:03:53 66° ESE 14:07:32 10° S visible
20 Nov 9.9 02:13:23 10° SW 02:15:47 17° W 02:18:14 10° NW visible
20 Nov 8.5 13:35:01 10° NNE 13:38:25 33° E 13:41:44 10° SSE visible
21 Nov 8.7 01:46:56 10° SSW 01:50:12 31° W 01:53:33 10° NNW visible
21 Nov 9.7 13:10:17 10° NE 13:12:51 18° E 13:15:22 10° SE visible
21 Nov 7.1 14:42:56 10° N 14:46:24 38° WNW 14:49:49 10° SW visible
